Location: Eymir
(36.7333°N, 29.7833°E)
Time: 18:34:59
(UTC+00:00)

ATLAS 2AS CENTAUR R/B - Pass Details

Date: 14 January 2026
Orbit: 1050 x 1161 km, 63.7° (Epoch: 17 February)

Event Time Altitude Azimuth Distance (km) Brightness Sun altitude
Exits shadow 04:23:04 - 333° (NNW) 3,763 5.1 -10.0°
Reaches altitude 10° 04:25:38 10° 338° (NNW) 2,870 4.6 -9.5°
Maximum altitude 04:32:08 48° 52° (NE) 1,347 3.5 -8.3°
Drops below altitude 10° 04:38:38 10° 126° (SE) 2,873 6.5 -7.1°
Sets 04:41:23 0° 132° (SE) 3,835 7.2 -6.6°
